sat.trackr.live / text

‹ back to catalog

STARLINK-37606

NORAD 69845 · 2026-154AC

PAYLOAD ACTIVE UNKNOWN

§ Identity

Operator
Country
US
Launch date
2026-07-05
Launch site
AFETR
Launch vehicle
Mass (kg)
RCS (m²)

Purposes: comms

External: N2YO · Heavens-Above · Gunter

§ Orbital elements

Epoch: 2026-09-20T04:44:29.653152Z

Period
93.84 min
Inclination
53.1598°
Eccentricity
0.0001227
Mean motion
15.34445305 rev/d
Perigee alt
461.7 km
Apogee alt
463.4 km
Semi-major
6,840.7 km
B*
3.7863e-4
RAAN
332.9718°
Arg perigee
132.0927°
Mean anomaly
228.0180°
Rev number
1,319

§ Raw data

STARLINK-376061 69845U 26154AC  26263.19756543  .00012456  00000+0  37863-3 0  99962 69845  53.1598 332.9718 0001227 132.0927 228.0180 15.34445305 13193

JSON: /api/v1/satellites/69845 · /tle

For live sub-satellite position, see the globe view (requires WebGL).

§ Visibility from observer

Set your observer location to see the next 7 days of passes ≥ 10°. The values pass through the URL so the page stays shareable.

No JS? Fill the form by hand. The geolocation button needs JavaScript.